Regional Weather Roundup
Issued by NWS Bismarck, ND

Home | Current Version | Previous Version | Text Only | Print | Product List | Glossary On
Versions: 1 2 3 4 5 6 7 8 9 10 11 12 13 14 15 16 17 18 19 20 21 22 23 24 25 26 27 28 29 30 31 32 33 34 35 36 37 38 39 40 41 42 43 44 45 46 47 48 49 50
000
ASUS43 KBIS 250110
RWRBIS

NWR BROADCAST TEXT
NATIONAL WEATHER SERVICE BISMARCK ND
800 PM CDT FRI MAR 24 2017

NOTE: "FAIR" INDICATES FEW OR NO CLOUDS BELOW 12,000 FEET WITH NO
SIGNIFICANT WEATHER AND/OR OBSTRUCTIONS TO VISIBILITY.


CITY           SKY/WX    TMP DP  RH WIND       PRES   REMARKS
WILLISTON      FAIR      48  32  53 E20G28    29.96F
MINOT          FAIR      34  28  79 E12       30.12S
MINOT AFB      FAIR      33  29  85 SE15      30.11R
BISMARCK       FAIR      40  34  79 E14       30.14S
DICKINSON      FAIR      48  33  56 SE18      30.01R
GARRISON         N/A     35  30  82 SE13      30.10S
HETTINGER ARPT FAIR      51  32  48 SE12      30.04S
JAMESTOWN      CLOUDY    32  28  85 NE9       30.17F
HAZEN          FAIR      41  32  70 E7        30.12R
LINTON           N/A     41  37  87 E9        30.15R
MANDAN         FAIR      37  34  87 E13       30.13R
RUGBY            N/A     30  28  93 SE12      30.16F
STANLEY        FAIR      37  36  93 SE15G21   30.08S
TIOGA          FAIR      39  39 100 E13       30.04S
WATFORD CITY   FAIR      48  36  61 SE17      29.98S
$$

CITY           SKY/WX    TMP DP  RH WIND       PRES   REMARKS
GRAND FORKS    MOCLDY    34  28  79 N7        30.22S
GRAND FORKS AF CLOUDY    33  27  77 E5        30.22F
DEVILS LAKE    CLOUDY    31  27  85 NE7       30.20S
FARGO          FAIR      34  30  85 N8        30.20R
CAVALIER         N/A     32  25  74 CALM      30.24R
GRAFTON        FAIR      32  30  93 N6        30.25S
GWINNER        CLOUDY    34  30  86 MISG      30.18F
LANGDON        CLOUDY    30  27  86 E6        30.21R
ROLLA          CLOUDY    28  27  93 SE9       30.18S WCI  20
$$

CITY           SKY/WX    TMP DP  RH WIND       PRES   REMARKS
ABERDEEN       FAIR      40  30  67 NE9       30.15S
MOBRIDGE       FAIR      50  31  48 E10       30.08S
BUFFALO          N/A     54  33  45 SE14      29.94S
RAPID CITY     FAIR      52  30  43 SE9       30.04F
GLASGOW        FAIR      55  30  38 SE13      29.82F
SIDNEY         FAIR      56  33  42 S7        29.92F
WOLF POINT     FAIR      61  27  27 SE7       29.86F
GLENDIVE       FAIR      57  26  30 S10       29.93S
MILES CITY     FAIR      60  29  30 SE16      29.88F
BAKER          FAIR      54  33  45 SE15      29.97F
$$

CITY           SKY/WX    TMP DP  RH WIND       PRES   REMARKS
BILLINGS       FAIR      62  26  25 S10       29.81F
GREAT FALLS    FAIR      60  18  19 S21G29    29.70R
REGINA         CLOUDY    36  32  87 SE25G33   29.93F
ESTEVAN        CLOUDY    32  30  93 E20G26    30.02F
$$





USA.gov is the U.S. government's official web portal to all federal, state and local government web resources and services.